GW3485 Weather Reports


time (UTC)temp
F
wind
direction
speed
knots
gust
knots
rain 1hr
in
rain 24hr
in
rain mn
in
humidity
%
barometer
mb
20260504040202 39 246 0.0 0.0 0.00 0.00 0.00 93 1015.7
20260504035658 39 246 0.0 0.0 0.00 0.00 0.00 93 1015.7
20260504035156 39 246 0.0 0.0 0.00 0.00 0.00 93 1015.9
20260504034653 39 246 0.0 0.0 0.00 0.00 0.00 93 1015.6
20260504034150 40 247 0.0 0.0 0.00 0.00 0.00 92 1015.6
20260504033648 40 246 0.0 0.0 0.00 0.00 0.00 91 1015.6
20260504033145 40 247 0.0 0.0 0.00 0.00 0.00 91 1015.5
20260504032641 41 247 0.0 0.0 0.00 0.00 0.00 91 1015.6
20260504032139 41 247 0.0 0.0 0.00 0.00 0.00 91 1015.7
20260504031636 41 247 0.0 0.0 0.00 0.00 0.00 91 1015.6
20260504031132 41 247 0.0 0.0 0.00 0.00 0.00 91 1015.5
20260504030629 41 247 0.0 0.0 0.00 0.00 0.00 91 1015.7
20260504030125 40 247 0.0 0.0 0.00 0.00 0.00 91 1015.6
20260504025622 40 247 0.0 0.0 0.00 0.00 0.00 91 1015.7
20260504025119 40 247 0.0 0.0 0.00 0.00 0.00 91 1015.6
20260504024617 40 247 0.0 0.9 0.00 0.00 0.00 91 1015.9
20260504024113 40 247 0.0 0.9 0.00 0.00 0.00 91 1015.9
20260504023610 39 247 0.0 0.9 0.00 0.00 0.00 91 1015.8
20260504023105 39 247 0.0 0.9 0.00 0.00 0.00 90 1015.8
20260504022602 39 247 0.9 0.9 0.00 0.00 0.00 90 1015.8
20260504022058 39 247 0.9 0.9 0.00 0.00 0.00 90 1015.8
20260504021556 40 247 0.9 0.9 0.00 0.00 0.00 89 1015.8
20260504021052 40 247 0.9 0.9 0.00 0.00 0.00 89 1016.0
20260504020549 40 247 0.9 0.9 0.00 0.00 0.00 88 1015.8
20260504020046 40 247 0.0 0.0 0.00 0.00 0.00 88 1015.6
20260504015542 41 247 0.9 0.9 0.00 0.00 0.00 87 1015.6
20260504015038 41 247 0.9 0.9 0.00 0.00 0.00 86 1015.7
20260504014535 41 247 0.0 0.9 0.00 0.00 0.00 86 1015.8
20260504014032 41 247 0.0 0.9 0.00 0.00 0.00 85 1015.8
20260504013529 42 247 0.0 0.9 0.00 0.00 0.00 85 1015.7
20260504013021 42 247 0.9 0.9 0.00 0.00 0.00 85 1015.6
20260504012518 42 247 0.0 0.9 0.00 0.00 0.00 84 1015.7
20260504012016 43 247 0.9 0.9 0.00 0.00 0.00 83 1015.6
20260504011512 43 247 0.9 0.9 0.00 0.00 0.00 82 1015.6
20260504011008 43 247 0.0 0.9 0.00 0.00 0.00 81 1015.5
20260504010504 44 246 0.0 0.9 0.00 0.00 0.00 81 1015.7
20260504010000 45 246 0.0 0.0 0.00 0.00 0.00 80 1015.9
20260504005457 45 246 0.0 0.0 0.00 0.00 0.00 77 1015.6
20260504004954 46 246 0.9 0.9 0.00 0.00 0.00 77 1015.6
20260504004452 46 246 0.0 0.0 0.00 0.00 0.00 75 1015.4
20260504003949 46 246 0.0 0.0 0.00 0.00 0.00 74 1015.5
20260504003445 47 246 0.0 0.0 0.00 0.00 0.00 74 1015.5
20260504002942 48 246 0.0 0.0 0.00 0.00 0.00 76 1015.6
20260504002439 48 246 0.0 0.9 0.00 0.00 0.00 71 1015.7
20260504001936 49 246 0.9 0.9 0.00 0.00 0.00 69 1015.5
20260504001434 49 246 1.7 1.7 0.00 0.00 0.00 63 1015.5
20260504000930 50 245 0.0 0.0 0.00 0.00 0.00 64 1015.6
20260504000427 51 247 0.9 1.7 0.00 0.00 0.00 62 1015.5
20260503235925 52 246 0.0 0.0 0.00 0.00 0.00 61 1015.5
20260503235422 53 226 0.9 0.9 0.00 0.00 0.00 55 1015.5
20260503234920 53 250 0.0 0.0 0.00 0.00 0.00 58 1015.6
20260503234417 53 216 0.9 0.9 0.00 0.00 0.00 50 1015.5
20260503233915 54 220 0.0 0.0 0.00 0.00 0.00 52 1015.6
20260503233411 55 220 0.0 0.9 0.00 0.00 0.00 50 1015.5
20260503232907 55 194 1.7 1.7 0.00 0.00 0.00 41 1015.4
20260503232405 57 214 0.0 0.9 0.00 0.00 0.00 41 1015.5
20260503231903 57 205 2.6 3.5 0.00 0.00 0.00 38 1015.7
20260503231400 56 230 2.6 2.6 0.00 0.00 0.00 38 1015.7
20260503230855 57 221 0.0 0.0 0.00 0.00 0.00 42 1015.7
20260503230352 57 222 0.0 0.9 0.00 0.00 0.00 38 1015.6
20260503225850 57 220 0.9 0.9 0.00 0.00 0.00 38 1015.7
20260503225346 57 217 4.3 5.2 0.00 0.00 0.00 39 1015.6
20260503224842 58 209 3.5 3.5 0.00 0.00 0.00 39 1015.7
20260503224340 58 232 0.0 0.9 0.00 0.00 0.00 37 1015.7
20260503223837 58 222 0.9 0.9 0.00 0.00 0.00 38 1015.9
20260503223335 57 339 1.7 2.6 0.00 0.00 0.00 38 1015.7
20260503222830 58 261 0.9 0.9 0.00 0.00 0.00 38 1015.9
20260503222329 58 307 2.6 2.6 0.00 0.00 0.00 37 1016.0
20260503221827 58 270 2.6 2.6 0.00 0.00 0.00 40 1016.1
20260503221325 58 216 1.7 2.6 0.00 0.00 0.00 39 1016.0
20260503220815 57 186 5.2 6.1 0.00 0.00 0.00 38 1015.9
20260503220312 57 129 6.1 7.0 0.00 0.00 0.00 38 1015.8
20260503215809 58 218 1.7 2.6 0.00 0.00 0.00 37 1015.8
20260503215306 57 201 1.7 2.6 0.00 0.00 0.00 39 1015.9
20260503214804 58 205 1.7 2.6 0.00 0.00 0.00 38 1016.0
20260503214301 59 227 0.9 0.9 0.00 0.00 0.00 38 1016.0
20260503213758 57 232 0.9 0.9 0.00 0.00 0.00 39 1015.9
20260503213255 58 220 3.5 5.2 0.00 0.00 0.00 38 1015.9
20260503212752 59 223 4.3 6.1 0.00 0.00 0.00 37 1015.9
20260503212250 60 226 2.6 3.5 0.00 0.00 0.00 38 1016.0
20260503211747 59 191 1.7 2.6 0.00 0.00 0.00 41 1015.9
20260503211243 58 97 4.3 7.0 0.00 0.00 0.00 38 1015.6
20260503210739 57 232 1.7 2.6 0.00 0.00 0.00 41 1015.9
20260503210237 58 208 4.3 6.1 0.00 0.00 0.00 37 1015.8
20260503205732 59 242 0.9 0.9 0.00 0.00 0.00 36 1015.9
20260503205228 59 210 0.0 0.9 0.00 0.00 0.00 36 1015.9
20260503204724 59 247 1.7 3.5 0.00 0.00 0.00 36 1016.0
20260503204223 58 355 2.6 5.2 0.00 0.00 0.00 38 1016.0
20260503203720 58 102 11.3 13.0 0.00 0.00 0.00 36 1016.3
20260503203217 59 167 1.7 2.6 0.00 0.00 0.00 35 1016.3
20260503202714 59 199 2.6 3.5 0.00 0.00 0.00 35 1016.2
20260503202212 58 189 1.7 2.6 0.00 0.00 0.00 36 1016.3
20260503201710 58 341 3.5 3.5 0.00 0.00 0.00 36 1016.6
20260503201207 60 130 1.7 5.2 0.00 0.00 0.00 38 1016.5
20260503200703 60 286 5.2 6.1 0.00 0.00 0.00 39 1016.6
20260503200159 58 196 1.7 2.6 0.00 0.00 0.00 38 1016.7
20260503195656 58 218 3.5 5.2 0.00 0.00 0.00 40 1016.7
20260503195153 59 51 3.5 3.5 0.00 0.00 0.00 36 1016.8
20260503194650 58 254 3.5 3.5 0.00 0.00 0.00 35 1016.9
20260503194146 58 341 2.6 5.2 0.00 0.00 0.00 36 1016.8
20260503193643 57 253 0.9 1.7 0.00 0.00 0.00 39 1016.9
20260503193138 58 227 1.7 2.6 0.00 0.00 0.00 37 1016.9
20260503192634 58 268 2.6 3.5 0.00 0.00 0.00 38 1017.0
20260503192130 57 50 7.0 7.8 0.00 0.00 0.00 37 1017.0
20260503191627 57 147 5.2 6.1 0.00 0.00 0.00 38 1017.4
20260503191124 57 39 2.6 3.5 0.00 0.00 0.00 38 1017.2
20260503190621 57 59 1.7 2.6 0.00 0.00 0.00 38 1017.3
20260503190118 59 11 1.7 2.6 0.00 0.00 0.00 37 1017.4
20260503185614 58 160 1.7 2.6 0.00 0.00 0.00 42 1017.5
20260503185114 58 111 1.7 2.6 0.00 0.00 0.00 38 1017.7
20260503184609 58 353 3.5 6.1 0.00 0.00 0.00 39 1017.7
20260503184106 57 189 2.6 3.5 0.00 0.00 0.00 39 1017.8
20260503183603 56 200 0.9 1.7 0.00 0.00 0.00 40 1017.9
20260503183100 57 28 4.3 5.2 0.00 0.00 0.00 38 1017.7
20260503182559 58 16 3.5 5.2 0.00 0.00 0.00 39 1017.9
20260503182056 58 6 2.6 3.5 0.00 0.00 0.00 40 1017.9
20260503181553 57 207 2.6 2.6 0.00 0.00 0.00 45 1017.7
20260503181049 55 112 5.2 6.1 0.00 0.00 0.00 40 1017.9
20260503180546 57 49 4.3 6.1 0.00 0.00 0.00 38 1018.0
20260503180044 57 231 2.6 3.5 0.00 0.00 0.00 42 1017.9
20260503175541 56 119 1.7 1.7 0.00 0.00 0.00 44 1018.2
20260503175038 57 64 3.5 3.5 0.00 0.00 0.00 40 1018.1
20260503174535 57 46 6.1 7.8 0.00 0.00 0.00 40 1018.2
20260503174031 56 250 2.6 3.5 0.00 0.00 0.00 40 1018.2
20260503173521 55 105 3.5 3.5 0.00 0.00 0.00 43 1018.5
20260503173018 56 267 4.3 7.0 0.00 0.00 0.00 43 1018.3
20260503172516 56 247 2.6 3.5 0.00 0.00 0.00 40 1018.3
20260503172013 57 355 3.5 5.2 0.00 0.00 0.00 42 1018.6
20260503171509 55 228 0.9 1.7 0.00 0.00 0.00 41 1018.4
20260503171006 55 175 3.5 7.0 0.00 0.00 0.00 42 1018.7
20260503170457 53 51 2.6 2.6 0.00 0.00 0.00 46 1018.8
20260503150849 50 352 3.5 3.5 0.00 0.00 0.00 48 1019.5
20260503150345 50 99 5.2 7.0 0.00 0.00 0.00 44 1019.6
20260503140309 48 229 0.9 1.7 0.00 0.00 0.00 56 1019.8
20260503131239 45 201 0.0 0.0 0.00 0.00 0.00 67 1019.8
20260503130737 45 186 6.1 7.0 0.00 0.00 0.00 66 1019.9
20260503130234 44 314 1.7 1.7 0.00 0.00 0.00 68 1019.8
20260503120200 30 264 0.0 0.0 0.00 0.00 0.00 99 1019.5
20260503110627 28 264 0.0 0.0 0.00 0.00 0.00 99 1019.3
20260503110124 28 264 0.0 0.0 0.00 0.00 0.00 99 1019.2
20260503090508 31 263 0.0 0.0 0.00 0.00 0.00 99 1018.4
20260503081428 31 264 0.0 0.0 0.00 0.00 0.00 99 1018.3
20260503080926 31 264 0.0 0.0 0.00 0.00 0.00 99 1018.2
20260503080422 31 264 0.0 0.0 0.00 0.00 0.00 99 1018.1
20260503072858 30 264 0.0 0.0 0.00 0.00 0.00 99 1018.0
20260503072355 30 264 0.0 0.0 0.00 0.00 0.00 99 1018.1
20260503071852 30 264 0.0 0.0 0.00 0.00 0.00 99 1018.1
20260503071349 30 264 0.0 0.0 0.00 0.00 0.00 99 1018.0
20260503070845 30 264 0.0 0.0 0.00 0.00 0.00 99 1017.9
20260503070343 30 264 0.0 0.0 0.00 0.00 0.00 99 1017.9